{"data":{"norad_id":57060,"epoch":"2026-09-20T21:47:06.639072Z","epoch_age_seconds":85729,"freshness":"FRESH","line1":"1 57060U 23088N   26263.90771573  .00000012  00000+0  99671-5 0  9996","line2":"2 57060  43.0045  88.5776 0001885 265.2957  94.7679 15.27576211180182","mean_motion":15.27576211,"eccentricity":0.0001885,"inclination_deg":43.0045,"raan_deg":88.5776,"arg_perigee_deg":265.2957,"mean_anomaly_deg":94.7679,"bstar":9.9671e-6,"rev_number":18018,"period_min":94.266982532893,"perigee_km":481.76710597443,"apogee_km":484.35377740995,"semimajor_km":6861.1974416922,"source":"CELESTRAK","updated_at":"2026-09-21T09:00:33.550262Z"}}